Location: Caltech
(34.1382°N, 118.1253°W)
Time: 11:46:30
(UTC-08:00)

Cosmos 2219 Rocket - Visible Passes

Search period start: 26 February 2017 00:00
Search period end: 08 March 2017 00:00
Orbit: 830 x 845 km, 71.0° (Epoch: 25 February)

Date Brightness Start Highest point End Pass type
(mag) Time Alt. Az. Time Alt. Az. Time Alt. Az.
26 Feb 3.8 18:19:27 10° NNE 18:22:35 15° NE 18:25:25 11° E visible
26 Feb 2.3 20:01:28 10° NNW 20:07:02 68° WSW 20:07:13 68° WSW visible
27 Feb 2.2 19:45:06 10° NNW 19:50:41 75° WSW 19:52:36 42° S visible
28 Feb 2.2 19:28:44 10° NNW 19:34:21 81° WSW 19:38:18 20° SSE visible
01 Mar 2.1 19:12:23 10° NNW 19:18:01 88° WSW 19:23:38 10° SSE visible
02 Mar 2.1 18:56:03 10° NNW 19:01:41 85° ENE 19:07:18 10° SSE visible
03 Mar 2.1 18:39:42 10° NNW 18:45:20 79° ENE 18:50:57 10° SSE visible
03 Mar 5.2 20:27:36 10° W 20:28:29 10° W 20:29:22 10° WSW visible
04 Mar 2.1 18:23:23 10° NNW 18:28:59 72° ENE 18:34:36 10° SSE visible
04 Mar 5.2 20:10:21 10° WNW 20:12:12 12° W 20:14:03 10° WSW visible
05 Mar 2.2 18:07:03 10° NNW 18:12:38 66° ENE 18:18:13 10° SSE visible
05 Mar 5.1 19:53:28 10° WNW 19:55:54 13° W 19:58:20 10° SW visible
06 Mar 5.1 19:36:44 10° WNW 19:39:37 14° W 19:42:30 10° SW visible
07 Mar 5.1 19:20:04 10° WNW 19:23:19 16° W 19:26:34 10° SW visible
